User: anonymous   Login
Location: Eyeline Observatory
(43.2182°N, 78.8632°W)
Time: 21:26:19
(UTC-04:00)
Language:

N. Korean satellite - Orbit

View from above orbital plane
View from above orbital plane
View from above satellite
View from above satellite

Ground track
Ground track

The orbit data is extracted from the following two-line orbital elements,

1 39026U 12072A   18202.56348201 +.00001151 +00000-0 +45456-4 0  9990
2 39026 097.2100 211.7607 0038492 198.6111 161.3724 15.26846429310845
Epoch (UTC): 21 July 2018 13:31:24
Eccentricity: 0.0038492
inclination: 97.2100°
perigee height: 459 km
apogee height: 511 km
right ascension of ascending node: 211.7607°
argument of perigee: 198.6111°
revolutions per day: 15.26846429
mean anomaly at epoch: 161.3724°
orbit number at epoch: 31084

The dashed part of the orbit path shows where the satellite is in the earth's shadow,  

DLR